{"data":{"norad_id":67287,"epoch":"2026-09-17T03:54:10.869984Z","epoch_age_seconds":391413,"freshness":"STALE","line1":"1 67287U 25313AR  26260.16262581  .00008656  00000+0  33995-3 0  9997","line2":"2 67287  97.3854 333.9986 0010021  40.3505 319.8476 15.25898059 39990","mean_motion":15.25898059,"eccentricity":0.0010021,"inclination_deg":97.3854,"raan_deg":333.9986,"arg_perigee_deg":40.3505,"mean_anomaly_deg":319.8476,"bstar":0.00033995,"rev_number":3999,"period_min":94.370655464606,"perigee_km":481.20941190702,"apogee_km":494.97070417674,"semimajor_km":6866.2270580419,"source":"CELESTRAK","updated_at":"2026-09-21T09:00:16.548815Z"}}